Location: Omaha
(41.2590°N, 95.9380°W)
Time: 11:05:38
(UTC-06:00)

Envisat - Pass Details

Date: 12 October 2017
Orbit: 764 x 766 km, 98.2° (Epoch: 13 December)

Event Time Altitude Azimuth Distance (km) Brightness Sun altitude
Exits shadow 22:14:13 22° 290° (WNW) 1,630 5.2 -38.7°
Drops below altitude 10° 22:17:00 10° 320° (NW) 2,311 6.1 -39.2°
Sets 22:19:44 0° 334° (NNW) 3,243 6.9 -39.6°
